Regional Weather Roundup
Issued by NWS

Home | Current Version | Previous Version | Graphics & Text | Print | Product List | Glossary On
Versions: 1 2 3 4 5 6 7 8 9 10 11 12 13 14 15 16 17 18 19 20 21 22 23 24 25 26 27 28 29 30 31 32 33 34 35 36 37 38 39 40 41 42 43 44 45 46 47 48 49 50
000
ASUS43 KBIS 292102
RWRND

NORTH DAKOTA REGIONAL WEATHER ROUNDUP
NATIONAL WEATHER SERVICE BISMARCK ND
400 PM CDT WED JUL 29 2015

NOTE: "FAIR" INDICATES FEW OR NO CLOUDS BELOW 12,000 FEET WITH NO
SIGNIFICANT WEATHER AND/OR OBSTRUCTIONS TO VISIBILITY.


NDZ001>003-009>011-017-292200-
NORTHWEST NORTH DAKOTA

CITY           SKY/WX    TMP DP  RH WIND       PRES   REMARKS
WILLISTON      MOSUNNY   82  47  29 W24G31    30.04F
MINOT          MOSUNNY   81  49  32 W23G33    29.97S
MINOT AFB      MOSUNNY   82  53  35 W28G33    29.95S
$$

NDZ018>021-031>035-040>046-292200-
SOUTHWEST NORTH DAKOTA

CITY           SKY/WX    TMP DP  RH WIND       PRES   REMARKS
BISMARCK       PTSUNNY   82  45  27 NW21G29   30.05S
DICKINSON      MOSUNNY   79  44  28 NW21G29   30.09F
GARRISON         N/A     78  52  40 W20G30    30.02S
HETTINGER ARPT SUNNY     82  38  20 W20G32    30.14F
$$

NDZ004>008-012>016-024-026-027-054-292200-
NORTHEAST NORTH DAKOTA

CITY           SKY/WX    TMP DP  RH WIND       PRES   REMARKS
GRAND FORKS    MOSUNNY   80  54  40 W21G35    29.82R
GRND FRKS AFB  MOSUNNY   80  56  43 NW16G33   29.84R
DEVILS LAKE    MOSUNNY   79  54  41 NW25G35   29.89R
$$

NDZ022-023-025-028>030-036>039-047>053-292200-
SOUTHEAST NORTH DAKOTA

CITY           SKY/WX    TMP DP  RH WIND       PRES   REMARKS
FARGO          MOSUNNY   80  54  40 W21G32    29.90R
JAMESTOWN      PTSUNNY   81  49  32 NW31G40   29.96R
$$




USA.gov is the U.S. government's official web portal to all federal, state and local government web resources and services.